User: anonymous   Login
Location: Unspecified
(0.0000°N, 0.0000°E)
Time: 18:53:50
(UTC+00:00)
Language:

PRISMA (TANGO) - Orbit

View from above orbital plane
View from above orbital plane
View from above satellite
View from above satellite

Ground track
Ground track

The orbit data is extracted from the following two-line orbital elements,

1 36827U 10028F   17145.93770814 +.00000053 +00000-0 +29059-4 0  9991
2 36827 098.4643 314.3720 0043934 106.8271 253.7744 14.42267909225645
Epoch (UTC): 25 May 2017 22:30:17
Eccentricity: 0.0043934
inclination: 98.4643°
perigee height: 719 km
apogee height: 782 km
right ascension of ascending node: 314.3720°
argument of perigee: 106.8271°
revolutions per day: 14.42267909
mean anomaly at epoch: 253.7744°
orbit number at epoch: 22564

The dashed part of the orbit path shows where the satellite is in the earth's shadow,  

DLR